When you browse on this site, cookies collect data to enhance your experience and personalize the content and advertising you see.
Visit our Privacy Policy to learn more. By continuing to use the site, you agree to this use of cookies and data.
  • In Latvia
  • List of Countries
  • For 7 days
  • Water Temperature
  • Weather Map
  • Weather Widgets
  • user-avatar
    Login

    Hourly Weather Littau

    Today, 22 October, Tuesday

    Time Temperature Precipitation Wind Pressure Humidity
    00:00 +12°C° 0.6 mm 0 mps 712 mmHg 98%
    01:00 +13°C° 0 mm 1 mps 712 mmHg 98%
    02:00 +12°C° 0 mm 0 mps 712 mmHg 98%
    03:00 +12°C° 0 mm 0 mps 711 mmHg 98%
    04:00 +12°C° 0 mm 0 mps 711 mmHg 97%
    05:00 +12°C° 0 mm 0 mps 711 mmHg 97%
    06:00 +12°C° 0 mm 0 mps 711 mmHg 97%
    07:00 +12°C° 0 mm 0 mps 712 mmHg 97%
    08:00 +14°C° 0 mm 1 mps 712 mmHg 95%
    09:00 +15°C° 0 mm 1 mps 712 mmHg 93%
    10:00 +16°C° 0 mm 1 mps 712 mmHg 91%
    11:00 +16°C° 0 mm 1 mps 712 mmHg 89%
    12:00 +18°C° 0 mm 1 mps 712 mmHg 87%
    13:00 +18°C° 0 mm 1 mps 712 mmHg 85%
    14:00 +18°C° 0 mm 1 mps 712 mmHg 86%
    15:00 +16°C° 0 mm 1 mps 711 mmHg 88%
    16:00 +16°C° 0 mm 1 mps 711 mmHg 90%
    17:00 +16°C° 0 mm 1 mps 711 mmHg 91%
    18:00 +15°C° 0 mm 1 mps 711 mmHg 92%
    19:00 +14°C° 0 mm 1 mps 711 mmHg 94%
    20:00 +14°C° 0 mm 1 mps 711 mmHg 93%
    21:00 +14°C° 0 mm 1 mps 711 mmHg 93%
    22:00 +13°C° 0 mm 1 mps 711 mmHg 93%
    23:00 +13°C° 0 mm 1 mps 710 mmHg 92%

    Tomorrow, 23 October, Wednesday

    Time Temperature Precipitation Wind Pressure Humidity
    00:00 +13°C° 0 mm 2 mps 710 mmHg 91%
    01:00 +12°C° 0 mm 2 mps 710 mmHg 90%
    02:00 +12°C° 0 mm 2 mps 710 mmHg 89%
    03:00 +12°C° 0 mm 2 mps 709 mmHg 88%
    04:00 +12°C° 0 mm 2 mps 709 mmHg 87%
    05:00 +12°C° 0 mm 2 mps 709 mmHg 87%
    06:00 +12°C° 0 mm 2 mps 708 mmHg 86%
    07:00 +12°C° 0 mm 2 mps 708 mmHg 85%
    08:00 +13°C° 0 mm 2 mps 708 mmHg 81%
    09:00 +15°C° 0 mm 1 mps 708 mmHg 77%
    10:00 +18°C° 0 mm 1 mps 708 mmHg 74%
    11:00 +19°C° 0 mm 1 mps 708 mmHg 69%
    12:00 +20°C° 0 mm 1 mps 708 mmHg 64%
    13:00 +21°C° 0 mm 1 mps 708 mmHg 59%
    14:00 +20°C° 0 mm 2 mps 707 mmHg 63%
    15:00 +19°C° 0 mm 2 mps 707 mmHg 67%
    16:00 +18°C° 0 mm 2 mps 707 mmHg 71%
    17:00 +17°C° 0 mm 2 mps 706 mmHg 73%
    18:00 +16°C° 0 mm 2 mps 706 mmHg 75%
    19:00 +14°C° 0 mm 2 mps 706 mmHg 76%
    20:00 +14°C° 0 mm 2 mps 706 mmHg 74%
    21:00 +14°C° 0 mm 2 mps 706 mmHg 72%
    22:00 +14°C° 0 mm 2 mps 706 mmHg 70%
    23:00 +14°C° 0 mm 2 mps 705 mmHg 71%

    Day after tomorrow, 24 October, Thursday

    Time Temperature Precipitation Wind Pressure Humidity
    00:00 +13°C° 0 mm 3 mps 705 mmHg 72%
    01:00 +13°C° 0 mm 3 mps 705 mmHg 72%
    02:00 +12°C° 0 mm 3 mps 704 mmHg 74%
    03:00 +13°C° 0 mm 2 mps 704 mmHg 75%
    04:00 +13°C° 0 mm 2 mps 704 mmHg 76%
    05:00 +13°C° 0 mm 2 mps 704 mmHg 78%
    06:00 +12°C° 0 mm 2 mps 704 mmHg 80%
    07:00 +12°C° 0 mm 2 mps 704 mmHg 82%
    08:00 +14°C° 0 mm 1 mps 704 mmHg 77%
    09:00 +15°C° 0 mm 1 mps 705 mmHg 72%
    10:00 +18°C° 0 mm 1 mps 705 mmHg 67%
    11:00 +19°C° 0.1 mm 1 mps 705 mmHg 66%
    12:00 +19°C° 0.1 mm 1 mps 705 mmHg 66%
    13:00 +19°C° 0.1 mm 1 mps 706 mmHg 66%
    14:00 +19°C° 0.2 mm 1 mps 706 mmHg 71%
    15:00 +18°C° 0.2 mm 1 mps 706 mmHg 75%
    16:00 +16°C° 0.2 mm 1 mps 705 mmHg 80%
    17:00 +15°C° 0.1 mm 1 mps 706 mmHg 82%
    18:00 +14°C° 0.1 mm 1 mps 706 mmHg 85%
    19:00 +13°C° 0.1 mm 1 mps 706 mmHg 88%
    20:00 +13°C° 0 mm 1 mps 707 mmHg 88%
    21:00 +13°C° 0 mm 1 mps 707 mmHg 88%
    22:00 +13°C° 0 mm 1 mps 708 mmHg 88%
    23:00 +13°C° 0.1 mm 1 mps 708 mmHg 89%

    25 October, Friday

    Time Temperature Precipitation Wind Pressure Humidity
    00:00 +13°C° 0.1 mm 1 mps 708 mmHg 91%
    01:00 +12°C° 0.1 mm 1 mps 709 mmHg 92%
    02:00 +12°C° 0 mm 1 mps 709 mmHg 92%
    03:00 +12°C° 0 mm 1 mps 709 mmHg 93%
    04:00 +11°C° 0 mm 0 mps 709 mmHg 94%
    05:00 +11°C° 0 mm 0 mps 710 mmHg 94%
    06:00 +10°C° 0 mm 0 mps 710 mmHg 94%
    07:00 +10°C° 0 mm 0 mps 710 mmHg 94%
    08:00 +12°C° 0 mm 1 mps 710 mmHg 90%
    09:00 +13°C° 0 mm 1 mps 711 mmHg 86%
    10:00 +14°C° 0 mm 1 mps 711 mmHg 82%
    11:00 +15°C° 0 mm 1 mps 711 mmHg 79%
    12:00 +15°C° 0 mm 1 mps 711 mmHg 76%
    13:00 +16°C° 0 mm 1 mps 711 mmHg 73%
    14:00 +15°C° 0 mm 1 mps 711 mmHg 75%
    15:00 +15°C° 0 mm 1 mps 710 mmHg 78%
    16:00 +14°C° 0 mm 0 mps 710 mmHg 80%
    17:00 +13°C° 0 mm 0 mps 710 mmHg 84%
    18:00 +11°C° 0 mm 0 mps 710 mmHg 87%
    19:00 +10°C° 0 mm 0 mps 710 mmHg 91%
    20:00 +11°C° 0 mm 1 mps 710 mmHg 91%
    21:00 +11°C° 0 mm 1 mps 710 mmHg 90%
    22:00 +10°C° 0 mm 1 mps 710 mmHg 90%
    23:00 +10°C° 0 mm 1 mps 710 mmHg 88%

    26 October, Saturday

    Time Temperature Precipitation Wind Pressure Humidity
    00:00 +10°C° 0 mm 1 mps 710 mmHg 86%
    01:00 +10°C° 0 mm 1 mps 710 mmHg 84%
    02:00 +10°C° 0 mm 1 mps 710 mmHg 83%
    03:00 +10°C° 0 mm 1 mps 710 mmHg 81%
    04:00 +10°C° 0 mm 1 mps 710 mmHg 80%
    05:00 +10°C° 0 mm 1 mps 710 mmHg 79%
    06:00 +10°C° 0 mm 1 mps 710 mmHg 77%
    07:00 +10°C° 0 mm 1 mps 710 mmHg 75%
    08:00 +12°C° 0 mm 1 mps 710 mmHg 71%
    09:00 +14°C° 0 mm 1 mps 710 mmHg 66%
    10:00 +15°C° 0 mm 0 mps 711 mmHg 61%
    11:00 +18°C° 0 mm 1 mps 711 mmHg 58%
    12:00 +19°C° 0 mm 1 mps 710 mmHg 56%
    13:00 +20°C° 0 mm 1 mps 710 mmHg 53%
    14:00 +20°C° 0 mm 1 mps 710 mmHg 58%
    15:00 +19°C° 0 mm 1 mps 710 mmHg 63%
    16:00 +18°C° 0 mm 1 mps 709 mmHg 68%
    17:00 +16°C° 0 mm 1 mps 709 mmHg 73%
    18:00 +14°C° 0 mm 1 mps 709 mmHg 77%
    19:00 +12°C° 0 mm 1 mps 709 mmHg 81%
    20:00 +12°C° 0 mm 1 mps 709 mmHg 80%
    21:00 +12°C° 0 mm 1 mps 709 mmHg 79%
    22:00 +11°C° 0 mm 1 mps 709 mmHg 78%
    23:00 +11°C° 0 mm 1 mps 709 mmHg 77%

    27 October, Sunday

    Time Temperature Precipitation Wind Pressure Humidity
    00:00 +11°C° 0 mm 1 mps 709 mmHg 77%
    01:00 +11°C° 0 mm 1 mps 709 mmHg 76%
    02:00 +11°C° 0 mm 1 mps 708 mmHg 75%
    03:00 +11°C° 0 mm 1 mps 708 mmHg 74%
    04:00 +11°C° 0 mm 1 mps 708 mmHg 74%
    05:00 +11°C° 0 mm 1 mps 708 mmHg 73%
    06:00 +11°C° 0 mm 1 mps 708 mmHg 72%
    07:00 +11°C° 0 mm 1 mps 708 mmHg 72%
    08:00 +13°C° 0 mm 1 mps 708 mmHg 67%
    09:00 +15°C° 0 mm 1 mps 708 mmHg 63%
    10:00 +16°C° 0 mm 0 mps 708 mmHg 58%
    11:00 +18°C° 0 mm 1 mps 708 mmHg 57%
    12:00 +19°C° 0 mm 1 mps 709 mmHg 56%
    13:00 +18°C° 0 mm 2 mps 709 mmHg 54%
    14:00 +18°C° 0 mm 1 mps 708 mmHg 60%
    15:00 +16°C° 0 mm 1 mps 708 mmHg 66%
    16:00 +15°C° 0 mm 1 mps 708 mmHg 71%
    17:00 +14°C° 0 mm 1 mps 708 mmHg 74%
    18:00 +12°C° 0 mm 0 mps 708 mmHg 78%
    19:00 +11°C° 0 mm 0 mps 708 mmHg 81%
    20:00 +11°C° 0 mm 0 mps 708 mmHg 81%
    21:00 +11°C° 0 mm 0 mps 708 mmHg 81%
    22:00 +11°C° 0 mm 0 mps 709 mmHg 81%
    23:00 +11°C° 0 mm 0 mps 708 mmHg 81%

    28 October, Monday

    Time Temperature Precipitation Wind Pressure Humidity
    00:00 +11°C° 0 mm 0 mps 708 mmHg 81%
    01:00 +11°C° 0 mm 0 mps 708 mmHg 81%
    02:00 +11°C° 0.2 mm 0 mps 708 mmHg 84%
    03:00 +11°C° 0.2 mm 0 mps 707 mmHg 87%
    04:00 +11°C° 0.2 mm 0 mps 707 mmHg 90%
    05:00 +11°C° 0.8 mm 0 mps 707 mmHg 92%
    06:00 +11°C° 0.8 mm 0 mps 707 mmHg 94%
    07:00 +11°C° 0.8 mm 0 mps 707 mmHg 95%
    08:00 +11°C° 0.8 mm 0 mps 707 mmHg 95%
    09:00 +11°C° 0.8 mm 0 mps 707 mmHg 95%
    10:00 +11°C° 0.8 mm 0 mps 707 mmHg 95%
    11:00 +12°C° 0.5 mm 0 mps 707 mmHg 95%
    12:00 +12°C° 0.5 mm 0 mps 707 mmHg 95%
    13:00 +12°C° 0.5 mm 0 mps 707 mmHg 95%
    14:00 +12°C° 0.1 mm 0 mps 707 mmHg 95%
    15:00 +12°C° 0.1 mm 0 mps 707 mmHg 94%
    16:00 +12°C° 0.1 mm 0 mps 706 mmHg 94%
    17:00 +12°C° 0.1 mm 0 mps 706 mmHg 95%
    18:00 +12°C° 0.1 mm 0 mps 706 mmHg 96%
    19:00 +11°C° 0.1 mm 0 mps 706 mmHg 97%
    20:00 +11°C° 0.2 mm 0 mps 707 mmHg 96%
    21:00 +11°C° 0.2 mm 0 mps 707 mmHg 96%
    22:00 +11°C° 0.2 mm 0 mps 707 mmHg 96%
    23:00 +11°C° 0.1 mm 0 mps 707 mmHg 96%
    Show more